Flag for Nicaragua Weather past 2 weeks in Masaya, Nicaragua

Now
95 °F

Scattered clouds.


Feels Like: 107 °F
Forecast: N/A
Wind: 12 mph from Southeast

Location: Managua A. C. Sandino

Current Time: Sep 1, 2015 at 2:41:30 PM

Latest Report: Sep 1, 2015 at 2:00 PM


Visibility: N/A

Pressure: 29.77 "Hg

Humidity: 53%

Dew point: 75 °F

Location of MasayaLocation

Historic Weather in Masaya — Graph

°F

Masaya temperature yesterday

Maximum temperature yesterday: 97 °F (at 1:00 PM)
Minimum temperature yesterday: 77 °F (at 6:00 AM)
Average temperature yesterday: 84 °F

Past Weeks' High & Low Weather Summary

 TemperatureHumidityPressure
High97 °F (Aug 18, 2:00 PM)94% (Aug 22, 7:00 AM)29.92 "Hg (Aug 22, 7:00 AM)
Low73 °F (Aug 25, 3:00 AM)39% (Aug 24, 1:00 PM)29.71 "Hg (Aug 24, 3:00 PM)
Average85 °F69%29.82 "Hg
* Reported Aug 17 1:00 PM — Sep 1 1:00 PM, Masaya, Weather by CustomWeather, © 2015

Note: Actual official high and low records may vary slightly from our data, if they occured in-between our weather recording intervals... More about our weather records

Advertising

Masaya weather history for previous 24 hours

 ConditionsComfort  
Time TempWeatherWind HumidityBarometerVisibility
1:00 PM
Tue, Sep 1
97 °FScattered clouds.18 mph47%29.80 "HgN/A
12:00 PM93 °FScattered clouds.14 mph56%29.83 "HgN/A
11:00 AM91 °FScattered clouds.14 mph59%29.86 "HgN/A
10:00 AM90 °FScattered clouds.12 mph63%29.86 "HgN/A
9:00 AM86 °FScattered clouds.9 mph70%29.86 "HgN/A
8:00 AM84 °FPartly sunny.5 mph74%29.86 "HgN/A
7:00 AM79 °FScattered clouds.No wind89%29.86 "HgN/A
6:00 AM77 °FPassing clouds.No wind89%29.89 "HgN/A
5:00 AM77 °FPassing clouds.No wind94%29.86 "HgN/A
4:00 AM79 °FPassing clouds.No wind89%29.86 "HgN/A
1:00 AM79 °FPassing clouds.5 mph89%29.89 "HgN/A
12:00 AM79 °FPassing clouds.No wind89%29.92 "HgN/A
11:00 PM
Mon, Aug 31
79 °FPassing clouds.No wind89%29.92 "HgN/A
9:00 PM81 °FPassing clouds.No wind84%29.89 "HgN/A
8:00 PM81 °FPassing clouds.No wind84%29.89 "HgN/A
7:00 PM79 °FPassing clouds.5 mph89%29.86 "HgN/A
6:00 PM79 °FPassing clouds.9 mph84%29.80 "HgN/A
5:00 PM79 °FThundershowers. Scattered clouds.9 mph79%29.77 "Hg6 mi
4:00 PM79 °FThunderstorms. Scattered clouds.7 mph79%29.80 "Hg6 mi
3:00 PM97 °FPassing clouds.12 mph50%29.77 "HgN/A
2:00 PM97 °FPassing clouds.12 mph50%29.77 "HgN/A
Weather by CustomWeather, © 2015

See weather overviewHow to use our weather pages